Location: Evergreen Manor
(41.4083°N, 81.4939°W)
Time: 22:37:01
(UTC+00:00)

Cosmos 1140 Rocket - Pass Details

Date: 11 December 2019
Orbit: 744 x 768 km, 74.1° (Epoch: 19 January)

Event Time Altitude Azimuth Distance (km) Brightness Sun altitude
Rises 00:22:18 0° 210° (SSW) 3,170 7.2 -26.5°
Reaches altitude 10° 00:24:41 10° 214° (SW) 2,251 6.4 -27.0°
Maximum altitude 00:29:41 56° 293° (WNW) 889 4.0 -27.9°
Enters shadow 00:30:47 46° 337° (NNW) 1,000 4.1 -28.1°
